User: anonymous   Login
Location: ????????
(55.3155°N, 39.2900°E)
Time: 06:57:57
(UTC+00:00)
Language:

USA 290 - Orbit

View from above orbital plane
View from above orbital plane
View from above satellite
View from above satellite

Ground track
Ground track

The orbit data is extracted from the following two-line orbital elements,

1 43941U 19004A   24133.88671761 0.00010000  00000-0  16215-3 0    04
2 43941  73.6071  43.8952 0007999 178.5060 181.4939 15.52607359    07
Epoch (UTC): 12 May 2024 21:16:52
Eccentricity: 0.0007999
inclination: 73.6071°
perigee height: 403 km
apogee height: 414 km
right ascension of ascending node: 43.8952°
argument of perigee: 178.5060°
revolutions per day: 15.52607359
mean anomaly at epoch: 181.4939°
orbit number at epoch: 0

The dashed part of the orbit path shows where the satellite is in the earth's shadow,  

DLR